Content
SEND FEEDBACK

Daily
Averages
Monthly
Summary
Sweden

SKARA, SWEDEN


Home > Europe > Sweden
Elevation: 250 feet     Latitude: 58 29N     Longitude: 013 03E

WEATHER
 
SELECT A DAY
Number of Records: 84,679;   Date Range: 6/19/04 - 4/21/13
 
SHARE

PRINT THIS DATA

[ ← Previous Day ]
WEATHER ALMANAC - JANUARY 31, 2013
[ Next Day → ]
[ °C ]   °F
Weather ElementAverageHighLow
Temperature35.9 °F40 °F (1:00 pm)26.6 °F (10:50 pm)
Dewpoint31.7 °F37.4 °F (2:50 am)23 °F (11:50 pm)
Humidity83.6 %100 % (2:50 am)60 % (1:00 pm)
Barometer29.07 in29.33 in (11:00 pm)28.80 in (3:50 am)
Wind Speed9.3 mph21.9 mph (12:50 am)
Weather ElementAverage
Visibility12.1 mi
Wind DirectionWSW (240.5 °)

Weather ElementTotal
Precipitation---
Heating Degree Days31.7 (Base 65)
Averaged from 67 records on January 31, 2013
WEATHER CONDITIONS BREAKOUT
WIND DIRECTION BREAKOUT
WEATHER BY HOUR - JANUARY 31, 2013
[ °C ]   °F
Local TimeTemperatureDewpointHumidityBarometerVisibilityWind DirectionWind SpeedGust SpeedPrecipitationEventsConditions
12:20 AM37.4 °F35.6 °F93 %28.88 in3.7 miSSW (210°)20.7 mphRainLight Rain Showers
12:50 AM37.4 °F35.6 °F93 %28.88 inSW (220°)21.9 mphRainLight Rain Showers
1:00 AM38.0 °F36.0 °F91 %28.90 in3.0 miSW (220°)20.1 mphRainDrizzle
1:20 AM39.2 °F35.6 °F87 %28.88 in3.1 miSW (220°)19.6 mphDrizzle
1:50 AM39.2 °F35.6 °F87 %28.85 inSSW (210°)19.6 mphOvercast
2:00 AM38.0 °F36.0 °F92 %28.88 in3.0 miSSW (210°)17.9 mphRainDrizzle
2:20 AM37.4 °F35.6 °F93 %28.85 in3.1 miSSW (210°)19.6 mphOvercast
2:50 AM37.4 °F37.4 °F100 %28.82 in3.1 miSSW (210°)19.6 mphOvercast
3:00 AM38.0 °F36.0 °F92 %28.84 in3.0 miSSW (210°)20.1 mphMist
3:20 AM37.4 °F35.6 °F93 %28.82 in5.0 miSSW (210°)19.6 mphDrizzle
3:50 AM37.4 °F35.6 °F93 %28.80 in6.2 miSSW (210°)16.1 mphOvercast
4:20 AM37.4 °F35.6 °F93 %28.80 inSSW (200°)15.0 mphOvercast
4:50 AM37.4 °F37.4 °F100 %28.80 inSSW (200°)11.5 mphDrizzle
5:00 AM38.0 °F37.0 °F93 %28.82 in2.0 miSSW (200°)11.2 mphRainLight Drizzle
5:20 AM37.4 °F37.4 °F100 %28.80 in2.2 miSSW (200°)11.5 mphLight Drizzle
5:50 AM39.2 °F37.4 °F93 %28.82 in3.7 miSW (220°)9.2 mphLight Drizzle
6:00 AM38.0 °F37.0 °F96 %28.84 in5.0 miSW (220°)6.7 mphRainDrizzle
6:20 AM37.4 °F37.4 °F100 %28.82 in4.3 miWest (260°)6.9 mphLight Drizzle
6:50 AM37.4 °F35.6 °F93 %28.85 in5.6 miWest (270°)8.1 mphMostly Cloudy
7:00 AM38.0 °F36.0 °F91 %28.88 in6.0 miWest (270°)8.9 mphRainLight Drizzle
7:20 AM37.4 °F35.6 °F93 %28.88 in6.2 miWest (270°)8.1 mphMostly Cloudy
7:50 AM37.4 °F35.6 °F93 %28.88 in6.2 miWest (270°)5.8 mphMostly Cloudy
8:00 AM36.0 °F34.0 °F90 %28.93 in11.0 miWest (260°)4.5 mphOvercast
8:20 AM37.4 °F35.6 °F93 %28.91 in6.2 miWest (260°)6.9 mphMostly Cloudy
8:50 AM37.4 °F35.6 °F93 %28.94 in6.2 miWNW (300°)10.4 mphMostly Cloudy
9:00 AM38.0 °F36.0 °F88 %28.98 in19.0 miWNW (300°)11.2 mphOvercast
9:20 AM37.4 °F35.6 °F93 %28.97 in6.2 miNW (310°)10.4 mphMostly Cloudy
9:50 AM37.4 °F35.6 °F93 %29.03 in6.2 miNW (310°)12.7 mphMostly Cloudy
10:20 AM37.4 °F33.8 °F87 %29.06 in6.2 miNNW (340°)17.3 mphScattered Clouds
10:50 AM37.4 °F33.8 °F87 %29.06 in6.2 miNW (320°)12.7 mphScattered Clouds
11:00 AM38.0 °F33.0 °F77 %29.11 in31.0 miNW (310°)11.2 mphRainLight Rain Showers
11:20 AM39.2 °F33.8 °F81 %29.09 inWNW (300°)12.7 mphClear
11:50 AM39.2 °F32.0 °F75 %29.12 inNW (310°)11.5 mphClear
12:00 PM39.0 °F32.0 °F68 %29.15 in44.0 miWNW (300°)11.2 mphPartly Cloudy
12:20 PM39.2 °F32.0 °F75 %29.15 inWNW (290°)10.4 mphClear
12:50 PM39.2 °F32.0 °F75 %29.15 inWNW (300°)11.5 mphClear
1:00 PM40.0 °F31.0 °F60 %29.18 in37.0 miWNW (300°)13.4 mph
1:20 PM39.2 °F30.2 °F70 %29.18 inWNW (300°)11.5 mphClear
1:50 PM39.2 °F30.2 °F70 %29.18 inWNW (300°)10.4 mphClear
2:00 PM39.0 °F30.0 °F60 %29.21 in44.0 miWNW (300°)8.9 mphMostly Cloudy
2:20 PM39.2 °F30.2 °F70 %29.18 inNW (310°)8.1 mphClear
2:50 PM39.2 °F30.2 °F70 %29.18 inWNW (300°)6.9 mphClear
3:00 PM38.0 °F29.0 °F62 %29.22 in47.0 miWNW (290°)6.7 mphMostly Cloudy
3:20 PM37.4 °F30.2 °F75 %29.21 inWNW (290°)6.9 mphClear
3:50 PM35.6 °F30.2 °F81 %29.21 inWest (270°)5.8 mphClear
4:20 PM35.6 °F28.4 °F75 %29.21 inWest (280°)5.8 mphClear
4:50 PM35.6 °F28.4 °F75 %29.21 inWest (280°)5.8 mphClear
5:00 PM34.0 °F28.0 °F72 %29.24 in31.0 miWest (260°)4.5 mph
5:20 PM33.8 °F28.4 °F81 %29.21 in6.2 miVariable1.2 mphOvercast
5:50 PM35.6 °F28.4 °F75 %29.24 in6.2 miWest (280°)3.5 mphMostly Cloudy
6:00 PM34.0 °F28.0 °F69 %29.25 in31.0 miWest (280°)4.5 mphOvercast
6:20 PM33.8 °F28.4 °F81 %29.24 in6.2 miWNW (300°)5.8 mphOvercast
6:50 PM33.8 °F28.4 °F81 %29.24 in6.2 miWest (280°)3.5 mphOvercast
7:00 PM33.0 °F28.0 °F75 %29.27 in31.0 miWest (280°)6.7 mphOvercast
7:20 PM33.8 °F26.6 °F75 %29.24 in6.2 miNNW (340°)4.6 mphOvercast
7:50 PM32.0 °F24.8 °F75 %29.24 in6.2 miNNW (340°)5.8 mphScattered Clouds
8:00 PM32.0 °F25.0 °F66 %29.28 in31.0 miNW (320°)6.7 mph
8:20 PM32.0 °F26.6 °F80 %29.27 in6.2 miVariable1.2 mph
8:50 PM30.2 °F24.8 °F80 %29.27 in6.2 miNW (320°)2.3 mph
9:00 PM30.0 °F25.0 °F75 %29.30 in31.0 miWSW (250°)2.2 mph
9:20 PM30.2 °F26.6 °F86 %29.27 in6.2 miCalm
9:50 PM30.2 °F26.6 °F86 %29.30 in6.2 miSE (130°)1.2 mph
10:20 PM28.4 °F26.6 °F93 %29.30 in6.2 miESE (120°)1.2 mph
10:50 PM26.6 °F24.8 °F93 %29.30 in6.2 miCalm
11:00 PM27.0 °F25.0 °F87 %29.33 in31.0 miCalm
11:20 PM28.4 °F24.8 °F86 %29.33 in6.2 miNNE (20°)1.2 mph
11:50 PM26.6 °F23.0 °F86 %29.33 in6.2 miVariable1.2 mph
Hourly data recorded from ESGL, located miles away from Skara, Sweden







STORIES FROM OUR PARTNERS